Погода в Корваре-ин-Бадии

Италия     46°33′04″N   11°52′26″E
темп.,
°C
ветер,
м/с
пор.,
м/с
влажн.,
%
обл.,
%
осадки,
мм/ч
давл.,
гПа
погр.,
м
17 августа, ср
ср1723:00+10ююв22942 0.0 101719
02:00+9ююв11940 0.0 101713
05:00+8ююв11951 0.0 101712
08:00+12юз11870 0.0 101775
11:00+18зюз235424 0.0 10151453
14:00+18зюз1357100 0.2 10141207
17:00+19ююз135196 0.4 10141660
20:00+13ююв2287100 1.9 101639
18 августа, чт
чт1823:00+10ю229210 0.2 101721
02:00+9ююв118910 0.2 101712
05:00+9юв21885 0.0 101615
08:00+12вюв1183100 0.1 101646
11:00+16вюв1272100 0.9 1014545
14:00+14юз239179 5.4 1015440
17:00+14юз239095 3.1 1015501
20:00+12ююв119597 3.8 101412
19 августа, пт
пт1923:00+11ююв2293100 0.9 101438
02:00+9всв2297100 5.1 101341
05:00+9в2296100 0.1 101244
08:00+10вюв1296100 0.6 101380
11:00+10вюв119599 4.8 101373
14:00+14ссз118185 8.6 1012714
17:00+13сз128595 3.3 1012448
20:00+9сз229588 5.1 101427
20 августа, сб
сб2023:00+8с2397100 0.1 101767
02:00+8св2397100 1.1 101788
05:00+7ссв229791 0.1 101852
08:00+9ссв239334 0.1 1018109
11:00+15с225719 0.0 10161022
14:00+17ссв125914 1.0 10151263
17:00+14вюв118196 2.5 1015151
20:00+10сз009291 5.4 101713
21 августа, вс
вс2123:00+9св119697 1.6 101825
02:00+7св119572 1.7 101815
05:00+6св11945 0.0 101716
08:00+9св12905 0.0 101678
11:00+15с11655 0.4 1014958
14:00+15ююз017618 3.2 1013696
17:00+14всв017887 4.6 1012150
20:00+10св228966 6.6 101417